Location: Boda
(47.1872°N, 9.5454°E)
Time: 17:36:50
(UTC+00:00)

Cosmos 220 Rocket - Pass Details

Date: 14 May 2021
Orbit: 575 x 615 km, 74.0° (Epoch: 16 June)

Event Time Altitude Azimuth Distance (km) Brightness Sun altitude
Exits shadow 02:30:16 10° 190° (S) 1,962 6.1 -11.3°
Maximum altitude 02:34:37 66° 109° (ESE) 675 4.4 -10.8°
Drops below altitude 10° 02:39:00 10° 27° (NNE) 1,973 7.9 -10.2°
Sets 02:41:15 0° 25° (NNE) 2,877 8.9 -9.9°
